This demonstration page uses our WeatherBlox Daily Observations layout. Learn more.

Left ArrowRight Arrow

Hourly Observations for June 15, 2017

Temp ( °F °C ) Dew Point ( °F °C ) Humidity (%) Winds ( mph kmh ) Pressure ( in mb ) Visibility ( mi km ) Precip ( " mm )
12:52 am 00:52 Mostly Cloudy 79 26.1 71 21.7 77 77 S 9 15 29.88 1012 10 16 0.00 0.00
1:52 am 01:52 Partly Cloudy 77 25 72 22.2 85 85 S 10 17 29.87 1012 10 16 0.00 0.00
2:52 am 02:52 Clear 76 24.4 72 22.2 88 88 S 12 19 29.85 1011 10 16 0.00 0.00
3:52 am 03:52 Clear 75 23.9 72 22.2 90 90 S 7 11 29.88 1012 10 16 0.00 0.00
4:04 am 04:04 Clear with Nearby Thunderstorms 75 23.9 72 22.2 90 90 S 6 9 29.88 1012 10 16 0.00 0.00
4:19 am 04:19 Mostly Cloudy with Thunderstorms 73 22.8 66 18.9 79 79 NNW 25 41 29.91 1013 10 16 0.00 0.00
4:27 am 04:27 Mostly Cloudy with Thunderstorms 71 21.7 65 18.3 81 81 NW 15 24 29.94 1014 10 16 0.00 0.03
4:34 am 04:34 Cloudy with Nearby Thunderstorms 70 21.1 65 18.3 84 84 NW 17 28 29.97 1015 10 16 0.00 0.03
4:39 am 04:39 Cloudy with Light Rain 70 21.1 65 18.3 84 84 NNW 10 17 29.94 1014 9 14 0.00 0.03
4:50 am 04:50 Cloudy with Nearby Thunderstorms 70 21 66 19 88 88 NNW 14 22 29.97 1015 8 13 0.05 1.27
4:52 am 04:52 Cloudy with Nearby Thunderstorms 69 20.6 66 18.9 90 90 NNW 16 26 29.97 1015 10 16 0.05 1.27
5:07 am 05:07 Cloudy with Thunderstorms 69 20.6 66 18.9 90 90 N 17 28 30.00 1016 9 14 0.00 0.03
5:38 am 05:38 Cloudy with Nearby Thunderstorms 68 20 67 19.4 96 96 NNE 12 19 30.00 1016 8 13 0.08 2.03
5:52 am 05:52 Mostly Cloudy with Nearby Thunderstorms 67 19.4 66 18.9 97 97 NE 13 20 29.98 1015 10 16 0.08 2.03
6:11 am 06:11 Cloudy with Thunderstorms 66 18.9 65 18.3 96 96 E 13 20 30.00 1016 5 8 0.04 1.02
6:27 am 06:27 Cloudy with Nearby Thunderstorms 66 18.9 65 18.3 96 96 E 15 24 30.00 1016 10 16 0.05 1.27
6:52 am 06:52 Cloudy with Nearby Thunderstorms 66 18.9 64 17.8 93 93 ENE 8 13 30.01 1016 7 11 0.08 2.03
7:14 am 07:14 Mostly Cloudy with Nearby Thunderstorms 66 18.9 64 17.8 93 93 SSE 17 28 29.97 1015 8 13 0.01 0.25
7:31 am 07:31 Partly Cloudy with Thunderstorms 66 18.9 64 17.8 93 93 SSE 12 19 29.97 1015 10 16 0.01 0.25
7:49 am 07:49 Partly Cloudy with Light Rain 66 19 64 18 94 94 S 14 22 29.97 1015 10 16 0.01 0.25
7:52 am 07:52 Partly Cloudy with Light Rain 66 18.9 64 17.8 93 93 S 13 20 29.96 1015 10 16 0.01 0.25
8:52 am 08:52 Sunny 66 18.9 64 17.8 93 93 SSE 7 11 29.97 1015 10 16 0.00 0.03
9:52 am 09:52 Sunny 66 18.9 64 17.8 93 93 S 13 20 29.96 1015 10 16 0.00 0.00
10:52 am 10:52 Sunny 73 22.8 67 19.4 81 81 SSW 10 17 29.94 1014 10 16 0.00 0.00
11:52 am 11:52 Sunny 79 26.1 69 20.6 72 72 SSW 10 17 29.93 1014 10 16 0.00 0.00
12:52 pm 12:52 Sunny 84 28.9 69 20.6 61 61 SW 10 17 29.92 1013 10 16 0.00 0.00
1:52 pm 13:52 Sunny 87 30.6 71 21.7 59 59 SW 14 22 29.90 1013 10 16 0.00 0.00
2:52 pm 14:52 Sunny 88 31.1 73 22.8 61 61 SW 13 20 29.89 1012 10 16 0.00 0.00
3:52 pm 15:52 Mostly Sunny 89 31.7 71 21.7 55 55 WSW 10 17 29.88 1012 10 16 0.00 0.00
4:52 pm 16:52 Sunny 89 31.7 72 22.2 57 57 SSW 8 13 29.86 1011 10 16 0.00 0.00
5:52 pm 17:52 Sunny 88 31.1 71 21.7 57 57 SW 8 13 29.85 1011 10 16 0.00 0.00
6:52 pm 18:52 Sunny 87 30.6 72 22.2 61 61 SSE 9 15 29.82 1010 10 16 0.00 0.00
7:52 pm 19:52 Sunny 84 28.9 73 22.8 70 70 S 8 13 29.83 1010 10 16 0.00 0.00
8:52 pm 20:52 Clear 82 27.8 72 22.2 72 72 S 8 13 29.83 1010 10 16 0.00 0.00
9:52 pm 21:52 Clear 81 27.2 72 22.2 74 74 S 9 15 29.85 1011 10 16 0.00 0.00
10:52 pm 22:52 Clear 78 25.6 73 22.8 85 85 SW 7 11 29.88 1012 10 16 0.00 0.00
11:52 pm 23:52 Clear 76 24.4 73 22.8 91 91 S 6 9 29.88 1012 10 16 0.00 0.00

Powered by AerisWeather